Weather History for KPPA - October, 2013

Change the Weather History Date:

Saturday, October 5, 2013

  Actual Average Record
Temperature  
Mean Temperature 52 °F -  
Max Temperature 63 °F 76 °F 88 °F (1974)
Min Temperature 41 °F 50 °F 35 °F (1985)
Degree Days  
Heating Degree Days 13    
Growing Degree Days 2 (Base 50)    
Moisture  
Dew Point 24 °F    
Average Humidity 38    
Maximum Humidity 58    
Minimum Humidity 20    
Precipitation  
Precipitation 0.00 in - - ()
Sea Level Pressure  
Sea Level Pressure 30.17 in    
Wind  
Wind Speed 15 mph (NNW)    
Max Wind Speed 23 mph    
Max Gust Speed 31 mph    
Visibility 10 miles    
Events      
Averages and records for this station are not official NWS values.
T = Trace of Precipitation, MM = Missing Value Source: NWS Daily Summary

Daily Weather History Graph

Daily Weather History Graph

Search for Another Location

Airport or City:

Trip Planner

Search our weather history database for the weather conditions in past years. The results will help you decide how hot, cold, wet, or windy it might be!

Date:

Astronomy

Oct. 05, 2013 Rise Set
Actual Time 7:42 AM CDT 7:21 PM CDT
Civil Twilight 7:16 AM CDT 7:47 PM CDT
Nautical Twilight 6:47 AM CDT 8:16 PM CDT
Astronomical Twilight 6:17 AM CDT 8:46 PM CDT
Moon 8:21 AM CDT (10/5) 7:45 PM CDT (10/5)
Length of Visible Light 12h 30m
Length of Day
11h 39m
New Moon, 1% of the Moon is Illuminated
Oct 5
New Moon
Oct 11
First Quarter
Oct 18
Full
Oct 26
Last Quarter
Nov 3
New

Hourly Weather History & Observations

Time (CDT) Temp. Windchill Dew Point Humidity Pressure Visibility Wind Dir Wind Speed Gust Speed Precip Events Conditions
12:15 AM 50.0 °F - 29.7 °F 46% 30.10 in 10.0 mi NNE 17.3 mph 21.9 mph N/A   Clear
12:35 AM 49.1 °F - 30.0 °F 48% 30.11 in 10.0 mi NNE 15.0 mph 23.0 mph N/A   Clear
12:55 AM 48.4 °F - 29.7 °F 48% 30.11 in 10.0 mi North 18.4 mph 24.2 mph N/A   Clear
1:15 AM 48.0 °F - 29.5 °F 49% 30.12 in 10.0 mi North 20.7 mph 26.5 mph N/A   Clear
1:35 AM 47.3 °F - 29.7 °F 50% 30.12 in 10.0 mi North 20.7 mph 26.5 mph N/A   Clear
1:55 AM 46.4 °F 38.5 °F 29.5 °F 52% 30.13 in 10.0 mi North 21.9 mph 26.5 mph N/A   Clear
2:15 AM 45.1 °F 36.6 °F 28.8 °F 53% 30.14 in 10.0 mi North 23.0 mph 31.1 mph N/A   Clear
2:35 AM 44.2 °F 36.4 °F 28.4 °F 54% 30.15 in 10.0 mi North 18.4 mph 26.5 mph N/A   Clear
2:55 AM 43.7 °F 35.4 °F 28.2 °F 54% 30.15 in 10.0 mi North 19.6 mph 27.6 mph N/A   Clear
3:15 AM 43.0 °F 34.8 °F 26.2 °F 52% 30.15 in 10.0 mi North 18.4 mph 29.9 mph N/A   Clear
3:35 AM 42.1 °F 34.2 °F 27.1 °F 55% 30.15 in 10.0 mi North 16.1 mph 23.0 mph N/A   Clear
3:55 AM 41.5 °F 34.2 °F 27.3 °F 57% 30.15 in 10.0 mi North 13.8 mph 19.6 mph N/A   Clear
4:15 AM 41.2 °F 33.4 °F 27.5 °F 58% 30.14 in 10.0 mi North 15.0 mph 19.6 mph N/A   Scattered Clouds
4:35 AM 41.9 °F 34.0 °F 26.6 °F 55% 30.16 in 10.0 mi North 16.1 mph 20.7 mph N/A   Mostly Cloudy
4:55 AM 41.9 °F 33.4 °F 26.2 °F 54% 30.16 in 10.0 mi North 18.4 mph 24.2 mph N/A   Overcast
5:15 AM 42.8 °F 34.0 °F 24.6 °F 49% 30.17 in 10.0 mi North 20.7 mph 26.5 mph N/A   Overcast
5:35 AM 42.8 °F 34.5 °F 23.9 °F 47% 30.17 in 10.0 mi North 18.4 mph 25.3 mph N/A   Overcast
5:55 AM 42.8 °F 34.8 °F 24.1 °F 48% 30.18 in 10.0 mi North 17.3 mph 24.2 mph N/A   Overcast
6:15 AM 42.8 °F 35.4 °F 24.3 °F 48% 30.19 in 10.0 mi North 15.0 mph 24.2 mph N/A   Overcast
6:35 AM 43.2 °F 35.6 °F 23.9 °F 47% 30.19 in 10.0 mi North 16.1 mph 25.3 mph N/A   Overcast
6:55 AM 43.0 °F 36.4 °F 24.4 °F 48% 30.19 in 10.0 mi North 12.7 mph 20.7 mph N/A   Overcast
7:15 AM 43.0 °F 36.8 °F 24.8 °F 49% 30.19 in 10.0 mi North 11.5 mph - N/A   Overcast
7:35 AM 43.0 °F 36.0 °F 24.4 °F 48% 30.20 in 10.0 mi North 13.8 mph 20.7 mph N/A   Mostly Cloudy
7:55 AM 42.8 °F 35.1 °F 24.3 °F 48% 30.21 in 10.0 mi North 16.1 mph - N/A   Overcast
8:15 AM 43.2 °F 35.3 °F 24.6 °F 48% 30.21 in 10.0 mi North 17.3 mph 21.9 mph N/A   Overcast
8:35 AM 43.7 °F 36.6 °F 24.4 °F 47% 30.21 in 10.0 mi North 15.0 mph - N/A   Overcast
8:55 AM 43.9 °F 35.9 °F 24.3 °F 46% 30.21 in 10.0 mi North 18.4 mph 23.0 mph N/A   Mostly Cloudy
9:15 AM 45.5 °F 38.6 °F 23.2 °F 41% 30.21 in 10.0 mi North 16.1 mph 20.7 mph N/A   Mostly Cloudy
9:35 AM 46.0 °F 39.3 °F 23.5 °F 41% 30.21 in 10.0 mi North 16.1 mph 19.6 mph N/A   Scattered Clouds
10:35 AM 49.3 °F - 24.3 °F 38% 30.23 in 10.0 mi North 20.7 mph - N/A   Clear
10:55 AM 50.4 °F - 23.9 °F 36% 30.23 in 10.0 mi North 17.3 mph 26.5 mph N/A   Clear
11:15 AM 51.3 °F - 23.4 °F 34% 30.23 in 10.0 mi North 17.3 mph 25.3 mph N/A   Clear
11:35 AM 52.9 °F - 24.3 °F 33% 30.22 in 10.0 mi North 18.4 mph 25.3 mph N/A   Clear
11:55 AM 53.2 °F - 23.7 °F 32% 30.22 in 10.0 mi North 18.4 mph 25.3 mph N/A   Clear
12:15 PM 54.1 °F - 24.3 °F 31% 30.22 in 10.0 mi North 18.4 mph 25.3 mph N/A   Clear
12:35 PM 55.0 °F - 23.5 °F 30% 30.22 in 10.0 mi NNW 19.6 mph 26.5 mph N/A   Clear
12:55 PM 56.3 °F - 24.3 °F 29% 30.21 in 10.0 mi North 17.3 mph 21.9 mph N/A   Clear
1:15 PM 57.4 °F - 23.9 °F 28% 30.21 in 10.0 mi NNW 17.3 mph 23.0 mph N/A   Clear
1:35 PM 58.6 °F - 24.4 °F 27% 30.19 in 10.0 mi North 18.4 mph 24.2 mph N/A   Clear
1:55 PM 60.1 °F - 24.4 °F 26% 30.18 in 10.0 mi North 17.3 mph 24.2 mph N/A   Clear
2:15 PM 60.8 °F - 24.1 °F 25% 30.17 in 10.0 mi NNW 17.3 mph 26.5 mph N/A   Clear
2:35 PM 60.8 °F - 22.6 °F 23% 30.16 in 10.0 mi NNW 15.0 mph 31.1 mph N/A   Clear
3:15 PM 61.7 °F - 21.7 °F 22% 30.16 in 10.0 mi NW 17.3 mph 28.8 mph N/A   Clear
3:55 PM 62.6 °F - 21.7 °F 21% 30.14 in 10.0 mi NNW 16.1 mph 21.9 mph N/A   Clear
4:35 PM 63.0 °F - 20.7 °F 20% 30.14 in 10.0 mi NW 16.1 mph 23.0 mph N/A   Clear
4:55 PM 63.1 °F - 21.0 °F 20% 30.13 in 10.0 mi NNW 11.5 mph 17.3 mph N/A   Clear
5:55 PM 62.1 °F - 21.0 °F 21% 30.13 in 10.0 mi NNW 9.2 mph - N/A   Clear
6:15 PM 61.7 °F - 20.5 °F 20% 30.13 in 10.0 mi NW 12.7 mph - N/A   Clear
6:35 PM 60.8 °F - 21.2 °F 22% 30.14 in 10.0 mi NNW 11.5 mph - N/A   Clear
6:55 PM 59.2 °F - 21.9 °F 24% 30.14 in 10.0 mi NNW 8.1 mph - N/A   Clear
7:15 PM 56.5 °F - 22.6 °F 27% 30.14 in 10.0 mi North 5.8 mph - N/A   Clear
7:35 PM 54.5 °F - 22.8 °F 29% 30.14 in 10.0 mi North 6.9 mph - N/A   Clear
7:55 PM 52.3 °F - 23.9 °F 33% 30.14 in 10.0 mi North 5.8 mph - N/A   Clear
8:15 PM 53.2 °F - 22.8 °F 31% 30.15 in 10.0 mi North 3.5 mph - N/A   Clear
8:35 PM 54.9 °F - 20.3 °F 26% 30.15 in 10.0 mi Calm Calm - N/A   Clear
8:55 PM 54.7 °F - 19.9 °F 26% 30.16 in 10.0 mi Calm Calm - N/A   Clear
9:15 PM 55.4 °F - 19.0 °F 24% 30.17 in 10.0 mi Calm Calm - N/A   Clear
9:35 PM 52.3 °F - 21.9 °F 30% 30.17 in 10.0 mi Calm Calm - N/A   Clear
9:55 PM 54.5 °F - 19.4 °F 25% 30.17 in 10.0 mi Calm Calm - N/A   Clear
10:15 PM 51.8 °F - 22.6 °F 32% 30.18 in 10.0 mi Calm Calm - N/A   Clear
10:35 PM 52.0 °F - 20.5 °F 29% 30.18 in 10.0 mi WSW 3.5 mph - N/A   Clear
10:55 PM 53.2 °F - 19.0 °F 26% 30.19 in 10.0 mi West 3.5 mph - N/A   Clear
11:15 PM 51.8 °F - 19.8 °F 28% 30.19 in 10.0 mi West 4.6 mph - N/A   Clear
11:35 PM 47.7 °F - 22.6 °F 37% 30.19 in 10.0 mi WSW 6.9 mph - N/A   Clear
11:55 PM 42.8 °F 39.3 °F 25.3 °F 50% 30.19 in 10.0 mi WSW 5.8 mph - N/A   Clear